Weather in Ahtubinsk

Russia / Astrakhan Oblast     48°17′05″N   46°09′51″E
temp.,
°C
wind,
m/s
gust,
m/s
humid.,
%
clouds,
%
prec.,
mm/h
press.,
hPa
HPBL,
m
29 july, thu
thu2901:00+26ene333020 0.0 101334
04:00+25e333594 0.0 101344
07:00+25sse233375 0.0 101377
10:00+32sw3322100 0.0 1013867
13:00+34w541910 0.0 10123238
16:00+33wsw5520100 0.0 10121466
19:00+33wsw232146 0.0 1011878
22:00+29s332478 0.0 101132
30 july, fri
fri3001:00+27ssw352917 0.0 101168
04:00+26sw34285 0.0 101067
07:00+27sw33321 0.0 101185
10:00+33wsw44225 0.0 1011819
13:00+36wsw441722 0.0 10103774
16:00+37wsw541587 0.0 10093930
19:00+35wsw4617100 0.0 1009582
22:00+30ssw442298 0.0 100952
31 july, sat
sat3101:00+27s45281 0.0 101065
04:00+25ssw34320 0.0 101059
07:00+25ssw35352 0.0 1010131
10:00+33sw44221 0.0 1010735
13:00+36sw33170 0.0 10093579
16:00+37sw43163 0.0 10093798
19:00+35ssw43175 0.0 10091899
22:00+29s46215 0.0 101089
1 august, sun
sun101:00+27ssw22240 0.0 101011
04:00+25ssw22245 0.0 101111
07:00+28se11285 0.0 101215
10:00+34se11185 0.0 1012704
13:00+37se341425 0.0 10113502
16:00+38ese431298 0.0 10103781
19:00+37ese34130 0.0 1010818
22:00+31se22170 0.0 101111
2 august, mon
mon201:00+29e23200 0.0 101113
04:00+27ese33210 0.0 101113
07:00+29se33220 0.0 101153
10:00+35s34190 0.0 1012789
13:00+39s661225 0.0 10104020
16:00+39s761291 0.0 10094213
19:00+38se45145 0.0 10091058
22:00+31se23195 0.0 100912